| time (UTC) | temp F | wind direction | speed MPH | gust MPH | rain 1hr in | rain 24hr in | rain mn in | humidity % | barometer mb |
| 20260507003904 | 52 | 245 | 0.0 | 0.0 | 0.00 | 0.04 | 0.00 | 97 | 1012.3 |
| 20260507003404 | 52 | 245 | 3.0 | 3.0 | 0.00 | 0.04 | 0.00 | 97 | 1012.3 |
| 20260507002404 | 52 | 284 | 0.0 | 0.0 | 0.00 | 0.04 | 0.00 | 97 | 1012.4 |
| 20260507001904 | 52 | 284 | 0.0 | 0.0 | 0.00 | 0.04 | 0.00 | 97 | 1012.4 |
| 20260507001404 | 52 | 284 | 0.0 | 0.0 | 0.00 | 0.04 | 0.00 | 97 | 1012.4 |
| 20260507000904 | 52 | 284 | 0.0 | 0.0 | 0.00 | 0.04 | 0.00 | 97 | 1012.4 |
| 20260507000405 | 52 | 284 | 0.0 | 0.0 | 0.00 | 0.05 | 0.00 | 97 | 1012.5 |
| 20260506235904 | 52 | 284 | 0.0 | 0.0 | 0.00 | 0.05 | 0.00 | 97 | 1012.5 |
| 20260506235404 | 52 | 284 | 0.0 | 0.0 | 0.00 | 0.05 | 0.00 | 97 | 1012.6 |
| 20260506234904 | 52 | 284 | 0.0 | 0.0 | 0.00 | 0.05 | 0.00 | 97 | 1012.7 |
| 20260506233404 | 52 | 284 | 0.0 | 0.0 | 0.00 | 0.05 | 0.00 | 97 | 1012.8 |
| 20260506232904 | 52 | 284 | 0.0 | 0.0 | 0.00 | 0.05 | 0.00 | 97 | 1012.8 |
| 20260506232404 | 52 | 284 | 0.0 | 0.0 | 0.00 | 0.05 | 0.00 | 97 | 1012.8 |
| 20260506231904 | 52 | 284 | 0.0 | 0.0 | 0.00 | 0.05 | 0.00 | 97 | 1012.9 |
| 20260506231404 | 53 | 284 | 0.0 | 0.0 | 0.00 | 0.05 | 0.00 | 97 | 1012.9 |
| 20260506230904 | 53 | 284 | 0.0 | 0.0 | 0.00 | 0.05 | 0.00 | 96 | 1012.9 |
| 20260506230404 | 53 | 284 | 0.0 | 0.0 | 0.00 | 0.05 | 0.00 | 96 | 1013.0 |
| 20260506225904 | 53 | 284 | 0.0 | 0.0 | 0.00 | 0.06 | 0.00 | 96 | 1012.9 |
| 20260506225404 | 53 | 284 | 0.0 | 0.0 | 0.00 | 0.06 | 0.00 | 96 | 1013.0 |
| 20260506224404 | 53 | 284 | 0.0 | 0.0 | 0.00 | 0.06 | 0.00 | 96 | 1013.0 |
| 20260506223404 | 53 | 284 | 0.0 | 0.0 | 0.00 | 0.06 | 0.00 | 96 | 1013.0 |
| 20260506222904 | 53 | 284 | 0.0 | 3.0 | 0.00 | 0.06 | 0.00 | 95 | 1013.1 |
| 20260506222404 | 53 | 284 | 0.0 | 3.0 | 0.00 | 0.06 | 0.00 | 95 | 1013.2 |
| 20260506221904 | 53 | 285 | 0.0 | 2.0 | 0.00 | 0.06 | 0.00 | 95 | 1013.3 |
| 20260506221404 | 53 | 285 | 1.0 | 3.0 | 0.00 | 0.06 | 0.00 | 95 | 1013.4 |
| 20260506220904 | 53 | 286 | 0.0 | 3.0 | 0.00 | 0.06 | 0.00 | 94 | 1013.4 |
| 20260506220404 | 53 | 287 | 2.0 | 3.0 | 0.00 | 0.06 | 0.00 | 94 | 1013.5 |
| 20260506215404 | 53 | 34 | 0.0 | 0.0 | 0.00 | 0.06 | 0.06 | 93 | 1013.5 |
| 20260506214904 | 53 | 34 | 0.0 | 0.0 | 0.00 | 0.06 | 0.06 | 93 | 1013.5 |
| 20260506214404 | 53 | 35 | 0.0 | 0.0 | 0.00 | 0.06 | 0.06 | 93 | 1013.5 |
| 20260506213904 | 53 | 34 | 0.0 | 0.0 | 0.00 | 0.06 | 0.06 | 92 | 1013.5 |
| 20260506213404 | 54 | 34 | 0.0 | 0.0 | 0.00 | 0.06 | 0.06 | 92 | 1013.6 |
| 20260506212404 | 54 | 32 | 0.0 | 0.0 | 0.00 | 0.06 | 0.06 | 92 | 1013.5 |
| 20260506210404 | 54 | 29 | 1.0 | 3.0 | 0.00 | 0.06 | 0.06 | 92 | 1013.5 |
| 20260506205904 | 54 | 28 | 1.0 | 3.0 | 0.00 | 0.06 | 0.06 | 91 | 1013.5 |
| 20260506205404 | 54 | 28 | 0.0 | 2.0 | 0.00 | 0.06 | 0.06 | 91 | 1013.5 |
| 20260506204904 | 54 | 27 | 2.0 | 5.0 | 0.00 | 0.06 | 0.06 | 91 | 1013.5 |
| 20260506204404 | 54 | 36 | 1.0 | 3.0 | 0.00 | 0.06 | 0.06 | 91 | 1013.5 |
| 20260506203904 | 54 | 36 | 1.0 | 3.0 | 0.00 | 0.06 | 0.06 | 91 | 1013.5 |
| 20260506203404 | 54 | 37 | 3.0 | 5.0 | 0.00 | 0.06 | 0.06 | 91 | 1013.5 |
| 20260506202904 | 54 | 49 | 3.0 | 5.0 | 0.00 | 0.06 | 0.06 | 91 | 1013.5 |
| 20260506202404 | 54 | 10 | 1.0 | 8.0 | 0.00 | 0.06 | 0.06 | 91 | 1013.5 |
| 20260506201904 | 54 | 22 | 4.0 | 6.0 | 0.00 | 0.06 | 0.06 | 91 | 1013.5 |
| 20260506201404 | 54 | 26 | 2.0 | 6.0 | 0.00 | 0.06 | 0.06 | 91 | 1013.4 |
| 20260506200904 | 54 | 355 | 3.0 | 6.0 | 0.00 | 0.06 | 0.06 | 91 | 1013.3 |
| 20260506200404 | 54 | 29 | 1.0 | 8.0 | 0.00 | 0.06 | 0.06 | 92 | 1013.3 |
| 20260506195905 | 54 | 20 | 6.0 | 8.0 | 0.00 | 0.06 | 0.06 | 92 | 1013.4 |
| 20260506195404 | 54 | 51 | 6.0 | 7.0 | 0.00 | 0.06 | 0.06 | 92 | 1013.3 |
| 20260506194404 | 54 | 35 | 7.0 | 10.0 | 0.00 | 0.06 | 0.06 | 92 | 1013.2 |
| 20260506193904 | 55 | 30 | 4.0 | 9.0 | 0.00 | 0.06 | 0.06 | 91 | 1013.2 |
| 20260506193404 | 55 | 47 | 5.0 | 9.0 | 0.00 | 0.06 | 0.06 | 91 | 1013.1 |
| 20260506192904 | 55 | 22 | 1.0 | 3.0 | 0.00 | 0.06 | 0.06 | 91 | 1013.2 |
| 20260506192404 | 55 | 25 | 4.0 | 9.0 | 0.00 | 0.06 | 0.06 | 90 | 1013.2 |
| 20260506191904 | 55 | 9 | 3.0 | 9.0 | 0.00 | 0.06 | 0.06 | 90 | 1013.1 |
| 20260506191404 | 55 | 31 | 3.0 | 6.0 | 0.00 | 0.06 | 0.06 | 89 | 1013.1 |
| 20260506190904 | 55 | 1 | 3.0 | 9.0 | 0.00 | 0.06 | 0.06 | 89 | 1013.0 |
| 20260506190404 | 55 | 40 | 2.0 | 6.0 | 0.00 | 0.06 | 0.06 | 89 | 1013.1 |
| 20260506185904 | 55 | 21 | 2.0 | 9.0 | 0.00 | 0.06 | 0.06 | 88 | 1013.1 |
| 20260506185404 | 55 | 16 | 3.0 | 9.0 | 0.00 | 0.06 | 0.06 | 88 | 1013.1 |
| 20260506184904 | 55 | 50 | 1.0 | 3.0 | 0.00 | 0.06 | 0.06 | 88 | 1013.1 |
| 20260506184404 | 55 | 328 | 3.0 | 6.0 | 0.00 | 0.06 | 0.06 | 88 | 1013.1 |
| 20260506183905 | 55 | 5 | 1.0 | 3.0 | 0.00 | 0.06 | 0.06 | 88 | 1013.0 |
| 20260506183404 | 55 | 5 | 1.0 | 3.0 | 0.00 | 0.06 | 0.06 | 87 | 1013.0 |
| 20260506182904 | 56 | 4 | 3.0 | 8.0 | 0.00 | 0.06 | 0.06 | 87 | 1012.9 |
| 20260506182404 | 56 | 32 | 3.0 | 6.0 | 0.00 | 0.06 | 0.06 | 87 | 1013.0 |
| 20260506181904 | 55 | 331 | 3.0 | 7.0 | 0.00 | 0.06 | 0.06 | 86 | 1013.0 |
| 20260506181404 | 55 | 15 | 8.0 | 12.0 | 0.00 | 0.06 | 0.06 | 86 | 1013.0 |
| 20260506180404 | 56 | 19 | 7.0 | 14.0 | 0.00 | 0.06 | 0.06 | 85 | 1012.9 |
| 20260506175404 | 56 | 16 | 7.0 | 12.0 | 0.00 | 0.06 | 0.06 | 85 | 1012.9 |
| 20260506174904 | 56 | 322 | 9.0 | 13.0 | 0.00 | 0.06 | 0.06 | 85 | 1013.0 |
| 20260506174404 | 56 | 15 | 7.0 | 12.0 | 0.00 | 0.06 | 0.06 | 85 | 1013.0 |
| 20260506173404 | 56 | 355 | 11.0 | 13.0 | 0.00 | 0.06 | 0.06 | 84 | 1013.0 |
| 20260506172404 | 56 | 336 | 10.0 | 15.0 | 0.00 | 0.06 | 0.06 | 83 | 1013.0 |
| 20260506171904 | 56 | 335 | 8.0 | 13.0 | 0.00 | 0.06 | 0.06 | 82 | 1013.0 |
| 20260506171404 | 56 | 358 | 10.0 | 14.0 | 0.00 | 0.06 | 0.06 | 81 | 1013.0 |
| 20260506170904 | 57 | 2 | 7.0 | 12.0 | 0.00 | 0.06 | 0.06 | 80 | 1012.9 |
| 20260506170404 | 57 | 355 | 5.0 | 12.0 | 0.00 | 0.06 | 0.06 | 81 | 1012.9 |
| 20260506165904 | 57 | 0 | 6.0 | 12.0 | 0.00 | 0.06 | 0.06 | 80 | 1012.9 |
| 20260506165404 | 57 | 316 | 5.0 | 12.0 | 0.00 | 0.06 | 0.06 | 81 | 1012.8 |
| 20260506164404 | 57 | 353 | 9.0 | 13.0 | 0.00 | 0.06 | 0.06 | 80 | 1012.9 |
| 20260506163903 | 57 | 337 | 5.0 | 12.0 | 0.00 | 0.06 | 0.06 | 79 | 1012.8 |
| 20260506163404 | 58 | 28 | 5.0 | 10.0 | 0.00 | 0.06 | 0.06 | 78 | 1012.9 |
| 20260506162904 | 57 | 16 | 6.0 | 13.0 | 0.00 | 0.06 | 0.06 | 78 | 1012.8 |
| 20260506162404 | 57 | 15 | 9.0 | 14.0 | 0.00 | 0.06 | 0.06 | 78 | 1012.8 |
| 20260506161904 | 57 | 4 | 4.0 | 13.0 | 0.00 | 0.06 | 0.06 | 79 | 1012.8 |
| 20260506161405 | 57 | 15 | 9.0 | 13.0 | 0.00 | 0.06 | 0.06 | 80 | 1012.7 |
| 20260506160904 | 58 | 47 | 7.0 | 13.0 | 0.00 | 0.06 | 0.06 | 80 | 1012.7 |
| 20260506155404 | 58 | 12 | 3.0 | 9.0 | 0.00 | 0.06 | 0.06 | 82 | 1012.7 |
| 20260506154904 | 58 | 9 | 6.0 | 12.0 | 0.00 | 0.06 | 0.06 | 82 | 1012.8 |
| 20260506154404 | 58 | 8 | 8.0 | 13.0 | 0.00 | 0.06 | 0.06 | 83 | 1012.8 |
| 20260506153904 | 58 | 15 | 4.0 | 10.0 | 0.00 | 0.06 | 0.06 | 84 | 1012.8 |
| 20260506153404 | 58 | 337 | 8.0 | 13.0 | 0.00 | 0.06 | 0.06 | 84 | 1012.9 |
| 20260506152905 | 57 | 18 | 9.0 | 13.0 | 0.00 | 0.06 | 0.06 | 84 | 1012.9 |
| 20260506152404 | 57 | 33 | 9.0 | 14.0 | 0.00 | 0.06 | 0.06 | 83 | 1013.0 |
| 20260506151404 | 58 | 31 | 7.0 | 13.0 | 0.01 | 0.06 | 0.06 | 83 | 1013.1 |
| 20260506150404 | 57 | 3 | 5.0 | 12.0 | 0.02 | 0.06 | 0.06 | 85 | 1013.1 |
| 20260506145904 | 57 | 38 | 5.0 | 12.0 | 0.02 | 0.06 | 0.06 | 85 | 1013.2 |
| 20260506145404 | 57 | 25 | 6.0 | 12.0 | 0.03 | 0.06 | 0.06 | 85 | 1013.2 |
| 20260506144903 | 57 | 14 | 7.0 | 13.0 | 0.04 | 0.06 | 0.06 | 86 | 1013.2 |
| 20260506144403 | 57 | 29 | 3.0 | 9.0 | 0.04 | 0.06 | 0.06 | 86 | 1013.3 |
| 20260506143903 | 57 | 5 | 4.0 | 13.0 | 0.04 | 0.06 | 0.06 | 85 | 1013.2 |
| 20260506142903 | 57 | 10 | 3.0 | 9.0 | 0.04 | 0.06 | 0.06 | 88 | 1013.3 |
| 20260506142402 | 56 | 43 | 1.0 | 3.0 | 0.04 | 0.06 | 0.06 | 87 | 1013.3 |
| 20260506141903 | 56 | 354 | 1.0 | 6.0 | 0.04 | 0.06 | 0.06 | 86 | 1013.4 |
| 20260506141403 | 56 | 9 | 3.0 | 7.0 | 0.03 | 0.05 | 0.05 | 86 | 1013.4 |
| 20260506140903 | 57 | 45 | 1.0 | 3.0 | 0.03 | 0.05 | 0.05 | 84 | 1013.6 |
| 20260506135902 | 58 | 141 | 2.0 | 3.0 | 0.02 | 0.03 | 0.03 | 83 | 1013.7 |
| 20260506134903 | 58 | 273 | 2.0 | 3.0 | 0.00 | 0.02 | 0.02 | 81 | 1013.8 |
| 20260506133903 | 58 | 263 | 2.0 | 7.0 | 0.00 | 0.09 | 0.02 | 81 | 1013.8 |
| 20260506133403 | 58 | 301 | 5.0 | 10.0 | 0.00 | 0.09 | 0.02 | 82 | 1013.9 |
| 20260506132403 | 58 | 239 | 6.0 | 10.0 | 0.00 | 0.09 | 0.02 | 81 | 1014.0 |
| 20260506131403 | 57 | 318 | 3.0 | 8.0 | 0.00 | 0.10 | 0.02 | 80 | 1014.1 |
| 20260506130903 | 58 | 324 | 4.0 | 8.0 | 0.00 | 0.10 | 0.02 | 79 | 1014.1 |
| 20260506125902 | 57 | 357 | 2.0 | 5.0 | 0.00 | 0.10 | 0.02 | 80 | 1014.1 |
| 20260506125403 | 57 | 14 | 5.0 | 9.0 | 0.00 | 0.10 | 0.02 | 80 | 1014.1 |
| 20260506124902 | 57 | 12 | 6.0 | 10.0 | 0.00 | 0.10 | 0.02 | 79 | 1014.1 |
| 20260506124403 | 57 | 33 | 3.0 | 9.0 | 0.00 | 0.10 | 0.02 | 80 | 1014.2 |
| 20260506123903 | 57 | 0 | 7.0 | 10.0 | 0.00 | 0.10 | 0.02 | 80 | 1014.2 |
| 20260506123403 | 57 | 347 | 8.0 | 12.0 | 0.00 | 0.10 | 0.02 | 80 | 1014.2 |
| 20260506122903 | 57 | 324 | 3.0 | 10.0 | 0.00 | 0.10 | 0.02 | 81 | 1014.2 |
| 20260506122403 | 56 | 343 | 9.0 | 13.0 | 0.00 | 0.10 | 0.02 | 81 | 1014.3 |
| 20260506121403 | 56 | 343 | 7.0 | 13.0 | 0.00 | 0.10 | 0.02 | 81 | 1014.3 |
| 20260506120903 | 56 | 302 | 9.0 | 13.0 | 0.00 | 0.10 | 0.02 | 81 | 1014.3 |
| 20260506120403 | 57 | 340 | 10.0 | 16.0 | 0.00 | 0.10 | 0.02 | 79 | 1014.3 |
| 20260506115903 | 58 | 334 | 9.0 | 14.0 | 0.00 | 0.11 | 0.02 | 77 | 1014.3 |
| 20260506115403 | 59 | 312 | 2.0 | 8.0 | 0.00 | 0.11 | 0.02 | 72 | 1014.3 |
| 20260506114902 | 59 | 0 | 5.0 | 8.0 | 0.00 | 0.11 | 0.02 | 69 | 1014.3 |
| 20260506114403 | 59 | 298 | 1.0 | 3.0 | 0.00 | 0.11 | 0.02 | 69 | 1014.3 |
| 20260506112903 | 59 | 63 | 3.0 | 8.0 | 0.00 | 0.11 | 0.02 | 71 | 1014.3 |
| 20260506111903 | 58 | 322 | 4.0 | 6.0 | 0.00 | 0.11 | 0.02 | 72 | 1014.4 |
| 20260506111403 | 58 | 355 | 1.0 | 6.0 | 0.00 | 0.11 | 0.02 | 75 | 1014.4 |
| 20260506110903 | 57 | 267 | 0.0 | 6.0 | 0.00 | 0.11 | 0.02 | 76 | 1014.4 |
| 20260506105903 | 57 | 291 | 5.0 | 8.0 | 0.00 | 0.11 | 0.02 | 75 | 1014.5 |
| 20260506105403 | 57 | 279 | 5.0 | 9.0 | 0.00 | 0.11 | 0.02 | 77 | 1014.5 |
| 20260506104903 | 57 | 294 | 1.0 | 8.0 | 0.00 | 0.11 | 0.02 | 77 | 1014.5 |
| 20260506104403 | 57 | 311 | 2.0 | 8.0 | 0.00 | 0.11 | 0.02 | 78 | 1014.5 |
| 20260506103903 | 56 | 318 | 3.0 | 8.0 | 0.00 | 0.11 | 0.02 | 79 | 1014.6 |
| 20260506103403 | 56 | 331 | 5.0 | 10.0 | 0.00 | 0.11 | 0.02 | 79 | 1014.6 |
| 20260506102904 | 56 | 299 | 2.0 | 7.0 | 0.00 | 0.12 | 0.02 | 81 | 1014.5 |
| 20260506102403 | 56 | 318 | 1.0 | 8.0 | 0.00 | 0.12 | 0.02 | 82 | 1014.5 |
| 20260506101903 | 56 | 281 | 2.0 | 6.0 | 0.00 | 0.12 | 0.02 | 81 | 1014.6 |
| 20260506101403 | 56 | 292 | 4.0 | 8.0 | 0.00 | 0.12 | 0.02 | 81 | 1014.6 |
| 20260506100903 | 56 | 264 | 4.0 | 9.0 | 0.00 | 0.12 | 0.02 | 82 | 1014.6 |
| 20260506100403 | 55 | 260 | 1.0 | 5.0 | 0.00 | 0.13 | 0.02 | 83 | 1014.6 |
| 20260506095903 | 55 | 307 | 2.0 | 7.0 | 0.00 | 0.13 | 0.02 | 84 | 1014.6 |
| 20260506095403 | 55 | 235 | 4.0 | 7.0 | 0.00 | 0.13 | 0.02 | 84 | 1014.6 |
| 20260506094903 | 55 | 267 | 3.0 | 8.0 | 0.00 | 0.13 | 0.02 | 84 | 1014.6 |
| 20260506094403 | 54 | 301 | 0.0 | 3.0 | 0.00 | 0.13 | 0.02 | 85 | 1014.6 |
| 20260506093903 | 54 | 299 | 1.0 | 5.0 | 0.00 | 0.13 | 0.02 | 85 | 1014.6 |
| 20260506092906 | 54 | 285 | 0.0 | 3.0 | 0.00 | 0.13 | 0.02 | 87 | 1014.6 |
| 20260506091903 | 54 | 284 | 1.0 | 3.0 | 0.00 | 0.13 | 0.02 | 88 | 1014.6 |
| 20260506091403 | 54 | 265 | 0.0 | 2.0 | 0.00 | 0.13 | 0.02 | 89 | 1014.6 |
| 20260506090903 | 53 | 264 | 1.0 | 3.0 | 0.00 | 0.13 | 0.02 | 89 | 1014.6 |
| 20260506090403 | 53 | 273 | 2.0 | 3.0 | 0.00 | 0.13 | 0.02 | 90 | 1014.6 |
| 20260506085904 | 53 | 252 | 1.0 | 3.0 | 0.00 | 0.13 | 0.02 | 90 | 1014.6 |
| 20260506085403 | 52 | 249 | 0.0 | 2.0 | 0.00 | 0.13 | 0.02 | 90 | 1014.6 |
| 20260506084903 | 52 | 248 | 1.0 | 3.0 | 0.00 | 0.13 | 0.02 | 91 | 1014.6 |
| 20260506084403 | 52 | 248 | 0.0 | 0.0 | 0.00 | 0.13 | 0.02 | 91 | 1014.7 |
| 20260506083402 | 51 | 248 | 1.0 | 3.0 | 0.00 | 0.13 | 0.02 | 91 | 1014.7 |
| 20260506082903 | 51 | 249 | 0.0 | 6.0 | 0.00 | 0.13 | 0.02 | 92 | 1014.7 |
| 20260506080903 | 50 | 241 | 2.0 | 3.0 | 0.00 | 0.13 | 0.02 | 95 | 1014.8 |
| 20260506073403 | 50 | 275 | 0.0 | 2.0 | 0.00 | 0.13 | 0.02 | 97 | 1014.6 |
| 20260506072903 | 50 | 275 | 0.0 | 0.0 | 0.00 | 0.13 | 0.02 | 98 | 1014.6 |
| 20260506071903 | 49 | 275 | 2.0 | 3.0 | 0.00 | 0.13 | 0.02 | 98 | 1014.6 |
| 20260506071403 | 49 | 275 | 2.0 | 3.0 | 0.00 | 0.13 | 0.02 | 98 | 1014.6 |
| 20260506070903 | 49 | 275 | 0.0 | 2.0 | 0.00 | 0.13 | 0.02 | 98 | 1014.6 |
| 20260506070403 | 49 | 275 | 0.0 | 1.0 | 0.00 | 0.13 | 0.02 | 98 | 1014.6 |
| 20260506062403 | 48 | 178 | 5.0 | 7.0 | 0.00 | 0.13 | 0.02 | 98 | 1014.3 |
| 20260506061903 | 48 | 188 | 2.0 | 5.0 | 0.00 | 0.13 | 0.02 | 98 | 1014.3 |
| 20260506061403 | 48 | 188 | 1.0 | 7.0 | 0.00 | 0.13 | 0.02 | 98 | 1014.4 |
| 20260506060403 | 48 | 183 | 2.0 | 5.0 | 0.00 | 0.13 | 0.02 | 98 | 1014.4 |
| 20260506051403 | 48 | 182 | 1.0 | 2.0 | 0.00 | 0.13 | 0.02 | 99 | 1014.1 |
| 20260506050903 | 48 | 181 | 2.0 | 5.0 | 0.00 | 0.13 | 0.02 | 99 | 1014.0 |
| 20260506050403 | 48 | 184 | 3.0 | 5.0 | 0.00 | 0.13 | 0.02 | 99 | 1014.0 |
| 20260506044903 | 48 | 177 | 5.0 | 7.0 | 0.00 | 0.13 | 0.02 | 99 | 1014.0 |
| 20260506044403 | 48 | 176 | 5.0 | 7.0 | 0.00 | 0.13 | 0.02 | 99 | 1014.0 |
| 20260506043903 | 48 | 182 | 5.0 | 7.0 | 0.00 | 0.13 | 0.02 | 99 | 1014.1 |
| 20260506043403 | 48 | 173 | 3.0 | 6.0 | 0.00 | 0.13 | 0.02 | 99 | 1014.1 |
| 20260506042903 | 48 | 176 | 5.0 | 6.0 | 0.00 | 0.13 | 0.02 | 99 | 1014.1 |
| 20260506042403 | 48 | 181 | 6.0 | 8.0 | 0.00 | 0.13 | 0.02 | 99 | 1014.1 |
| 20260506041403 | 48 | 181 | 5.0 | 7.0 | 0.00 | 0.13 | 0.02 | 99 | 1014.2 |
| 20260506040903 | 48 | 190 | 4.0 | 6.0 | 0.00 | 0.13 | 0.02 | 99 | 1014.2 |
| 20260506040403 | 48 | 188 | 2.0 | 3.0 | 0.00 | 0.13 | 0.02 | 99 | 1014.2 |
| 20260506035403 | 48 | 190 | 2.0 | 3.0 | 0.00 | 0.13 | 0.02 | 99 | 1014.3 |
| 20260506034903 | 48 | 190 | 2.0 | 5.0 | 0.00 | 0.13 | 0.02 | 99 | 1014.3 |
| 20260506034403 | 48 | 190 | 3.0 | 5.0 | 0.00 | 0.13 | 0.02 | 99 | 1014.3 |
| 20260506033903 | 48 | 190 | 2.0 | 7.0 | 0.00 | 0.13 | 0.02 | 99 | 1014.3 |
| 20260506033403 | 48 | 188 | 3.0 | 6.0 | 0.00 | 0.13 | 0.02 | 99 | 1014.3 |
| 20260506030903 | 48 | 174 | 3.0 | 5.0 | 0.00 | 0.13 | 0.02 | 99 | 1014.4 |
| 20260506030403 | 48 | 174 | 3.0 | 5.0 | 0.00 | 0.13 | 0.02 | 98 | 1014.4 |
| 20260506025903 | 48 | 174 | 1.0 | 5.0 | 0.00 | 0.13 | 0.02 | 98 | 1014.4 |
| 20260506025403 | 48 | 174 | 0.0 | 3.0 | 0.00 | 0.13 | 0.02 | 98 | 1014.4 |
| 20260506024903 | 48 | 174 | 2.0 | 5.0 | 0.00 | 0.13 | 0.02 | 98 | 1014.4 |
| 20260506023903 | 48 | 179 | 4.0 | 6.0 | 0.00 | 0.13 | 0.02 | 98 | 1014.4 |
| 20260506023403 | 48 | 177 | 4.0 | 7.0 | 0.00 | 0.13 | 0.02 | 98 | 1014.4 |
| 20260506022903 | 48 | 167 | 5.0 | 7.0 | 0.00 | 0.13 | 0.02 | 98 | 1014.4 |
| 20260506022403 | 48 | 200 | 4.0 | 9.0 | 0.00 | 0.13 | 0.02 | 98 | 1014.4 |
| 20260506021903 | 49 | 187 | 5.0 | 7.0 | 0.00 | 0.13 | 0.02 | 98 | 1014.4 |
| 20260506020903 | 49 | 197 | 2.0 | 5.0 | 0.00 | 0.13 | 0.02 | 98 | 1014.4 |
| 20260506020403 | 49 | 197 | 4.0 | 6.0 | 0.00 | 0.13 | 0.02 | 98 | 1014.4 |
| 20260506015903 | 49 | 214 | 3.0 | 5.0 | 0.00 | 0.13 | 0.02 | 98 | 1014.4 |
| 20260506015403 | 49 | 215 | 3.0 | 5.0 | 0.00 | 0.13 | 0.02 | 98 | 1014.4 |
| 20260506014403 | 49 | 217 | 2.0 | 5.0 | 0.00 | 0.13 | 0.02 | 98 | 1014.5 |
| 20260506013903 | 49 | 219 | 3.0 | 5.0 | 0.00 | 0.13 | 0.02 | 98 | 1014.7 |
| 20260506013403 | 49 | 238 | 2.0 | 3.0 | 0.00 | 0.13 | 0.02 | 98 | 1014.7 |
| 20260506012903 | 49 | 230 | 1.0 | 3.0 | 0.00 | 0.13 | 0.02 | 98 | 1014.6 |
| 20260506011903 | 49 | 230 | 3.0 | 6.0 | 0.00 | 0.13 | 0.02 | 98 | 1014.8 |
| 20260506011403 | 49 | 231 | 1.0 | 3.0 | 0.00 | 0.13 | 0.02 | 98 | 1014.8 |
| 20260506010903 | 49 | 231 | 1.0 | 3.0 | 0.00 | 0.13 | 0.02 | 98 | 1014.8 |
| 20260506010403 | 49 | 231 | 3.0 | 3.0 | 0.01 | 0.13 | 0.02 | 98 | 1014.9 |
| 20260506005903 | 49 | 246 | 3.0 | 3.0 | 0.01 | 0.13 | 0.02 | 98 | 1015.0 |
| 20260506004903 | 50 | 246 | 0.0 | 3.0 | 0.01 | 0.13 | 0.02 | 98 | 1015.0 |
| 20260506004403 | 50 | 247 | 0.0 | 2.0 | 0.01 | 0.13 | 0.02 | 98 | 1015.1 |